This is the latest recevied weather packets stored in our database for station/object W5MAI. If no packets are shown the sender has not sent any weather packets the latest 10 day(s).
| Time | Temp. | Humidity | Pressure | Rain* | Wind** | Luminosity | Snow |
|---|---|---|---|---|---|---|---|
| 1777943643 | 24.44° C | 71% | 1010.9 hPa | 0 mm | - | 0 W/m² | - |
| 1777943005 | 25° C | 69% | 1010.7 hPa | 0 mm | - | 11 W/m² | - |
| 1777941828 | 25.56° C | 67% | 1010.8 hPa | 0 mm | - | 28 W/m² | - |
| 1777941243 | 25.56° C | 66% | 1010.6 hPa | 0 mm | - | 58 W/m² | - |
| 1777940606 | 26.11° C | 65% | 1010.6 hPa | 0 mm | - | 91 W/m² | - |
| 1777940041 | 26.11° C | 64% | 1010.6 hPa | 0 mm | - | 105 W/m² | - |
| 1777939455 | 26.11° C | 64% | 1010.5 hPa | 0 mm | - | 113 W/m² | - |
| 1777938835 | 26.11° C | 64% | 1010.8 hPa | 0 mm | - | 172 W/m² | - |
| 1777938256 | 26.67° C | 63% | 1010.9 hPa | 0 mm | - | 232 W/m² | - |
| 1777937608 | 26.67° C | 64% | 1011 hPa | 0 mm | - | 272 W/m² | - |
| 1777937022 | 26.67° C | 63% | 1011.2 hPa | 0 mm | - | 301 W/m² | - |
| 1777936447 | 26.11° C | 63% | 1011.4 hPa | 0 mm | - | 357 W/m² | - |
| 1777935823 | 26.11° C | 63% | 1011.5 hPa | 0 mm | - | 223 W/m² | - |
| 1777935224 | 26.67° C | 63% | 1011.5 hPa | 0 mm | - | 200 W/m² | - |
| 1777934646 | 26.67° C | 63% | 1011.8 hPa | 0 mm | - | 496 W/m² | - |
| 1777934061 | 26.67° C | 64% | 1011.9 hPa | 0 mm | - | 596 W/m² | - |
| 1777933409 | 26.67° C | 63% | 1012 hPa | 0 mm | - | 237 W/m² | - |
| 1777932842 | 26.11° C | 64% | 1012 hPa | 0 mm | - | 278 W/m² | - |
| 1777932262 | 26.67° C | 63% | 1011.9 hPa | 0 mm | - | 422 W/m² | - |
| 1777931627 | 26.67° C | 63% | 1011.9 hPa | 0 mm | - | 360 W/m² | - |
| 1777931057 | 26.11° C | 64% | 1012 hPa | 0 mm | - | 341 W/m² | - |
| 1777930422 | 26.11° C | 63% | 1012 hPa | 0 mm | - | 485 W/m² | - |
| 1777929858 | 26.11° C | 64% | 1012.2 hPa | 0 mm | - | 381 W/m² | - |
| 1777929211 | 26.67° C | 63% | 1012.4 hPa | 0 mm | - | 323 W/m² | - |
| 1777928645 | 26.11° C | 64% | 1012.7 hPa | 0 mm | - | 318 W/m² | - |
* Rain latest hour (hover to see other rain measurements)
** Current wind speed in m/s (hover to see current wind gust speed)